sat.trackr.live / text

‹ back to catalog

COSMOS 2468 (RODNIK-S 3)

NORAD 37154 · 2010-043C

PAYLOAD ACTIVE UNKNOWN

§ Identity

Operator
Country
CIS
Launch date
2010-09-08
Launch site
PLMSC
Launch vehicle
Mass (kg)
RCS (m²)
1.45

External: N2YO · Heavens-Above · Gunter

§ Orbital elements

Epoch: 2026-05-25T01:30:10.952064Z

Period
115.78 min
Inclination
82.4607°
Eccentricity
0.0015089
Mean motion
12.43746693 rev/d
Perigee alt
1,478.9 km
Apogee alt
1,502.6 km
Semi-major
7,868.9 km
B*
8.1765e-5
RAAN
76.7167°
Arg perigee
3.5813°
Mean anomaly
7.8220°
Rev number
71,300

§ Raw data

COSMOS 2468 (RODNIK-S 3)1 37154U 10043C   26145.06262676  .00000021  00000+0  81765-4 0  99942 37154  82.4607  76.7167 0015089   3.5813   7.8220 12.43746693713001

JSON: /api/v1/satellites/37154 · /tle

For live sub-satellite position, see the globe view (requires WebGL).

§ Visibility from observer

Set your observer location to see the next 7 days of passes ≥ 10°. The values pass through the URL so the page stays shareable.

No JS? Fill the form by hand. The geolocation button needs JavaScript.